.
WxDataArchive / Data Records for 2013-07-21
2013-07-20 July 2013 2013-07-22

Data Records for Sunday, 21 July 2013

Time	Temp	Chill	HIndex	Humid	Dewpt	 Wind 	HiWind	WindDir	Rain 	Barom 
-----	----	-----	------	-----	-----	------	------	-------	-----	----- 
00:00	73.0	73.0	73.0	81	66.8	0	0	---	0.00	29.884 
00:05	72.8	72.8	72.8	81	66.6	0	0	---	0.00	29.884 
00:10	72.8	72.8	72.8	81	66.6	0	0	---	0.00	29.884 
00:15	72.7	72.7	72.7	80	66.2	0	0	---	0.00	29.881 
00:20	72.5	72.5	72.5	80	66.0	0	0	---	0.00	29.881 
00:25	72.5	72.5	72.5	80	66.0	0	0	---	0.00	29.881 
00:30	72.3	72.3	72.3	80	65.8	0	0	---	0.00	29.890 
00:35	72.1	72.1	72.1	80	65.6	0	0	---	0.00	29.890 
00:40	72.1	72.1	72.1	80	65.6	0	0	---	0.00	29.890 
00:45	72.1	72.1	72.1	79	65.2	0	0	---	0.00	29.893 
00:50	72.1	72.1	72.1	79	65.2	0	0	---	0.00	29.893 
00:55	72.0	72.0	72.0	79	65.1	0	0	---	0.00	29.893 
01:00	72.0	72.0	72.0	79	65.1	0	0	---	0.00	29.894 
01:05	71.8	71.8	71.8	79	64.9	0	1	0	0.00	29.894 
01:10	71.8	71.8	71.8	79	64.9	0	0	---	0.00	29.894 
01:15	71.6	71.6	71.6	79	64.7	0	0	---	0.00	29.891 
01:20	71.5	71.5	71.5	79	64.6	0	0	---	0.00	29.891 
01:25	71.3	71.3	71.3	79	64.4	0	0	---	0.00	29.891 
01:30	71.1	71.1	71.1	79	64.2	0	0	---	0.00	29.894 
01:35	70.9	70.9	70.9	79	64.1	0	0	---	0.00	29.894 
01:40	70.9	70.9	70.9	79	64.1	0	0	---	0.00	29.894 
01:45	70.8	70.8	70.8	80	64.3	0	0	---	0.00	29.895 
01:50	70.6	70.6	70.6	80	64.1	0	0	---	0.00	29.895 
01:55	70.6	70.6	70.6	81	64.5	0	0	---	0.00	29.895 
02:00	70.4	70.4	70.4	81	64.3	0	0	---	0.00	29.895 
02:05	70.3	70.3	70.3	81	64.2	0	0	---	0.00	29.895 
02:10	70.3	70.3	70.3	81	64.2	0	0	---	0.00	29.895 
02:15	70.1	70.1	70.1	81	64.0	0	0	---	0.00	29.896 
02:20	69.9	69.9	69.9	81	63.8	0	0	---	0.00	29.896 
02:25	69.9	69.9	69.9	82	64.1	0	0	---	0.00	29.896 
02:30	69.8	69.8	69.8	82	64.0	0	0	---	0.00	29.894 
02:35	69.8	69.8	69.8	82	64.0	0	0	---	0.00	29.894 
02:40	69.8	69.8	69.8	83	64.4	0	0	---	0.00	29.894 
02:45	69.6	69.6	69.6	83	64.2	0	0	---	0.00	29.891 
02:50	69.4	69.4	69.4	83	64.0	0	0	---	0.00	29.891 
02:55	69.3	69.3	69.3	84	64.2	0	0	---	0.00	29.891 
03:00	69.3	69.3	69.3	84	64.2	0	0	---	0.00	29.894 
03:05	69.1	69.1	69.1	84	64.1	0	0	---	0.00	29.894 
03:10	68.9	68.9	68.9	84	63.9	0	0	---	0.00	29.894 
03:15	68.8	68.8	68.8	85	64.1	0	0	---	0.00	29.893 
03:20	68.8	68.8	68.8	85	64.1	0	0	---	0.00	29.893 
03:25	68.6	68.6	68.6	86	64.2	0	0	---	0.00	29.893 
03:30	68.4	68.4	68.4	86	64.0	0	0	---	0.00	29.894 
03:35	68.3	68.3	68.3	86	63.9	0	0	---	0.00	29.894 
03:40	68.3	68.3	68.3	87	64.3	0	0	---	0.00	29.894 
03:45	68.1	68.1	68.1	87	64.1	0	0	---	0.00	29.894 
03:50	67.9	67.9	67.9	87	63.9	0	0	---	0.00	29.894 
03:55	67.8	67.8	67.8	88	64.1	0	0	---	0.00	29.894 
04:00	67.8	67.8	67.8	88	64.1	0	0	---	0.00	29.896 
04:05	67.6	67.6	67.6	88	63.9	0	0	---	0.00	29.896 
04:10	67.6	67.6	67.6	88	63.9	0	0	---	0.00	29.896 
04:15	67.6	67.6	67.6	89	64.2	0	0	---	0.00	29.899 
04:20	67.6	67.6	67.6	89	64.2	0	0	---	0.00	29.899 
04:25	67.4	67.4	67.4	89	64.0	0	0	---	0.00	29.899 
04:30	67.4	67.4	67.4	89	64.0	0	0	---	0.00	29.902 
04:35	67.4	67.4	67.4	89	64.0	0	0	---	0.00	29.902 
04:40	67.3	67.3	67.3	89	63.9	0	0	---	0.00	29.902 
04:45	67.3	67.3	67.3	89	63.9	0	0	---	0.00	29.899 
04:50	67.3	67.3	67.3	89	63.9	0	0	---	0.00	29.899 
04:55	67.3	67.3	67.3	89	63.9	0	0	---	0.00	29.899 
05:00	67.3	67.3	67.3	89	63.9	0	0	---	0.00	29.897 
05:05	67.1	67.1	67.1	90	64.1	0	0	---	0.00	29.897 
05:10	67.1	67.1	67.1	90	64.1	0	0	---	0.00	29.897 
05:15	67.1	67.1	67.1	90	64.1	0	0	---	0.00	29.897 
05:20	66.9	66.9	66.9	90	63.9	0	0	---	0.00	29.897 
05:25	66.9	66.9	66.9	90	63.9	0	0	---	0.00	29.897 
05:30	66.8	66.8	66.8	90	63.8	0	0	---	0.00	29.897 
05:35	66.8	66.8	66.8	90	63.8	0	0	---	0.00	29.897 
05:40	66.6	66.6	66.6	90	63.6	0	0	---	0.00	29.897 
05:45	66.4	66.4	66.4	90	63.4	0	0	---	0.00	29.899 
05:50	66.4	66.4	66.4	90	63.4	0	0	---	0.00	29.899 
05:55	66.3	66.3	66.3	90	63.3	0	0	---	0.00	29.899 
06:00	66.3	66.3	66.3	89	63.0	0	0	---	0.00	29.900 
06:05	66.1	66.1	66.1	89	62.8	0	0	---	0.00	29.900 
06:10	66.1	66.1	66.1	89	62.8	0	0	---	0.00	29.900 
06:15	66.1	66.1	66.1	89	62.8	0	0	---	0.00	29.910 
06:20	66.1	66.1	66.1	89	62.8	0	0	---	0.00	29.910 
06:25	66.1	66.1	66.1	89	62.8	0	0	---	0.00	29.910 
06:30	66.0	66.0	66.0	89	62.7	0	0	---	0.00	29.916 
06:35	66.0	66.0	66.0	89	62.7	0	0	---	0.00	29.916 
06:40	66.0	66.0	66.0	89	62.7	0	0	---	0.00	29.916 
06:45	66.0	66.0	66.0	89	62.7	0	0	---	0.00	29.923 
06:50	66.0	66.0	66.0	89	62.7	0	0	---	0.00	29.923 
06:55	66.0	66.0	66.0	89	62.7	0	0	---	0.00	29.923 
07:00	66.0	66.0	66.0	89	62.7	0	0	---	0.00	29.931 
07:05	66.0	66.0	66.0	89	62.7	0	0	---	0.00	29.931 
07:10	66.1	66.1	66.1	89	62.8	0	0	---	0.00	29.931 
07:15	66.3	66.3	66.3	89	63.0	0	0	---	0.00	29.934 
07:20	66.4	66.4	66.4	89	63.1	0	0	---	0.00	29.934 
07:25	66.8	66.8	66.8	89	63.4	0	0	---	0.00	29.934 
07:30	67.1	67.1	67.1	89	63.7	0	1	0	0.00	29.932 
07:35	67.6	67.6	67.6	88	63.9	0	1	0	0.00	29.932 
07:40	68.3	68.3	68.3	85	63.6	0	3	22	0.00	29.932 
07:45	68.9	68.9	68.9	83	63.5	0	3	112	0.00	29.930 
07:50	69.4	69.4	69.4	81	63.3	0	2	112	0.00	29.930 
07:55	70.1	70.1	70.1	80	63.6	1	2	112	0.00	29.930 
08:00	70.6	70.6	70.6	79	63.8	0	2	112	0.00	29.930 
08:05	71.1	71.1	71.1	78	63.9	1	3	112	0.00	29.930 
08:10	71.1	71.1	71.1	78	63.9	2	5	90	0.00	29.930 
08:15	71.3	71.3	71.3	79	64.4	1	5	112	0.00	29.932 
08:20	71.8	71.8	71.8	78	64.6	0	2	112	0.00	29.932 
08:25	72.1	72.1	72.1	77	64.5	2	5	112	0.00	29.932 
08:30	72.7	72.7	72.7	77	65.1	1	4	112	0.00	29.937 
08:35	73.0	73.0	73.0	77	65.3	1	3	112	0.00	29.937 
08:40	73.5	73.5	73.5	77	65.8	1	5	112	0.00	29.937 
08:45	73.9	73.9	73.9	77	66.2	0	2	112	0.00	29.940 
08:50	74.0	74.0	74.0	75	65.6	1	5	112	0.00	29.940 
08:55	74.0	74.0	74.0	76	65.9	1	5	90	0.00	29.940 
09:00	74.2	74.2	74.2	77	66.5	1	3	90	0.00	29.945 
09:05	74.6	74.6	74.6	77	66.9	1	3	90	0.00	29.945 
09:10	74.7	74.7	74.7	77	67.0	2	5	90	0.00	29.945 
09:15	74.7	74.7	74.7	77	67.0	2	5	90	0.00	29.947 
09:20	74.9	74.9	74.9	79	67.9	1	4	90	0.00	29.947 
09:25	74.9	74.9	74.9	77	67.2	2	4	90	0.00	29.947 
09:30	75.1	75.1	76.0	78	67.8	2	5	90	0.00	29.947 
09:35	75.1	75.1	76.0	78	67.8	2	4	90	0.00	29.947 
09:40	75.4	75.4	76.4	77	67.7	2	5	90	0.00	29.947 
09:45	75.4	75.4	76.3	78	68.0	2	6	68	0.00	29.952 
09:50	75.6	75.6	76.7	77	67.9	2	5	90	0.00	29.952 
09:55	76.1	76.1	77.3	78	68.7	0	2	90	0.00	29.952 
10:00	76.5	76.5	78.0	75	68.0	2	5	90	0.00	29.954 
10:05	76.8	76.8	78.4	75	68.3	2	4	90	0.00	29.954 
10:10	77.2	77.2	79.0	75	68.6	1	5	90	0.00	29.954 
10:15	77.7	77.7	79.7	73	68.3	1	4	90	0.00	29.958 
10:20	77.9	77.9	80.0	73	68.5	1	3	90	0.00	29.958 
10:25	77.9	77.9	80.0	73	68.5	2	5	90	0.00	29.958 
10:30	77.9	77.9	80.0	73	68.5	1	4	90	0.00	29.957 
10:35	78.1	78.1	80.2	72	68.3	2	5	90	0.00	29.957 
10:40	78.5	78.5	80.8	72	68.7	1	4	90	0.00	29.957 
10:45	78.6	78.6	81.0	73	69.2	2	5	90	0.00	29.955 
10:50	79.2	79.2	81.8	71	69.0	1	4	90	0.00	29.955 
10:55	79.4	79.4	82.1	71	69.2	2	4	68	0.00	29.955 
11:00	79.8	79.8	82.5	69	68.7	2	5	90	0.00	29.953 
11:05	80.1	80.1	82.9	68	68.6	1	6	90	0.00	29.953 
11:10	80.1	80.1	82.9	68	68.6	1	6	90	0.00	29.953 
11:15	80.5	80.5	83.3	67	68.5	1	3	90	0.00	29.958 
11:20	80.5	80.5	83.5	68	68.9	2	6	90	0.00	29.958 
11:25	80.7	80.7	83.2	64	67.4	2	5	90	0.00	29.958 
11:30	80.7	80.7	82.9	62	66.4	2	5	90	0.00	29.953 
11:35	81.1	81.1	83.6	63	67.3	1	4	90	0.00	29.953 
11:40	81.2	81.2	83.6	62	66.9	2	4	90	0.00	29.953 
11:45	81.8	81.8	84.9	64	68.4	1	4	90	0.00	29.958 
11:50	82.2	82.2	84.5	59	66.4	1	4	90	0.00	29.958 
11:55	82.4	82.4	84.8	59	66.6	1	4	90	0.00	29.958 
12:00	82.4	82.4	85.4	62	68.0	1	3	90	0.00	29.959 
12:05	82.2	82.2	84.5	59	66.4	2	5	90	0.00	29.959 
12:10	82.4	82.4	84.6	58	66.1	1	4	90	0.00	29.959 
12:15	82.4	82.4	84.8	59	66.6	2	5	90	0.00	29.957 
12:20	82.6	82.6	84.7	57	65.8	1	4	90	0.00	29.957 
12:25	83.2	83.2	85.6	57	66.4	1	3	90	0.00	29.957 
12:30	83.4	83.4	85.6	56	66.0	2	5	90	0.00	29.951 
12:35	83.6	83.6	85.7	55	65.7	1	4	90	0.00	29.951 
12:40	83.8	83.8	86.0	55	65.9	1	4	135	0.00	29.951 
12:45	84.1	84.1	86.9	57	67.2	1	4	112	0.00	29.942 
12:50	84.3	84.3	86.5	54	65.8	1	4	112	0.00	29.942 
12:55	84.0	84.0	85.6	52	64.4	2	5	90	0.00	29.942 
13:00	83.4	83.4	85.0	53	64.4	2	6	68	0.00	29.942 
13:05	83.6	83.6	85.0	52	64.1	1	4	68	0.00	29.942 
13:10	84.1	84.1	85.5	51	64.0	1	3	90	0.00	29.942 
13:15	84.1	84.1	85.3	50	63.4	2	5	90	0.00	29.942 
13:20	83.8	83.8	86.0	55	65.9	1	4	90	0.00	29.942 
13:25	84.1	84.1	86.2	54	65.6	2	4	90	0.00	29.942 
13:30	84.3	84.3	85.7	51	64.2	2	5	90	0.00	29.939 
13:35	84.1	84.1	86.2	54	65.6	1	5	90	0.00	29.939 
13:40	84.3	84.3	86.5	54	65.8	1	6	90	0.00	29.939 
13:45	84.5	84.5	86.7	54	66.0	2	5	90	0.00	29.935 
13:50	84.3	84.3	86.0	52	64.7	1	4	90	0.00	29.935 
13:55	84.0	84.0	85.8	53	65.0	2	6	90	0.00	29.935 
14:00	83.8	83.8	85.7	54	65.3	1	4	90	0.00	29.933 
14:05	83.6	83.6	85.7	55	65.7	1	5	90	0.00	29.933 
14:10	83.8	83.8	86.2	56	66.4	1	4	90	0.00	29.933 
14:15	84.3	84.3	86.5	54	65.8	1	4	90	0.00	29.941 
14:20	84.7	84.7	86.5	52	65.1	1	3	90	0.00	29.941 
14:25	85.5	85.5	87.2	50	64.7	1	3	112	0.00	29.941 
14:30	85.9	85.9	87.5	49	64.5	1	4	90	0.00	29.938 
14:35	86.3	86.3	87.8	48	64.3	0	2	90	0.00	29.938 
14:40	86.7	86.7	88.6	49	65.2	2	4	158	0.00	29.938 
14:45	86.3	86.3	88.0	49	64.9	2	6	68	0.00	29.935 
14:50	86.3	86.3	88.6	51	66.0	1	3	68	0.00	29.935 
14:55	86.3	86.3	88.0	49	64.9	1	3	68	0.00	29.935 
15:00	85.7	85.7	87.7	51	65.5	1	3	68	0.00	29.929 
15:05	85.7	85.7	87.4	50	64.9	1	5	135	0.00	29.929 
15:10	85.9	85.9	87.2	48	63.9	1	4	90	0.00	29.929 
15:15	86.5	86.5	88.9	51	66.2	1	3	135	0.00	29.926 
15:20	86.1	86.1	88.0	50	65.3	2	5	90	0.00	29.926 
15:25	86.1	86.1	87.8	49	64.7	1	4	112	0.00	29.926 
15:30	85.9	85.9	86.9	47	63.3	1	6	90	0.00	29.922 
15:35	85.7	85.7	86.9	48	63.7	1	3	90	0.00	29.922 
15:40	86.1	86.1	87.0	46	62.9	1	3	90	0.00	29.922 
15:45	86.7	86.7	87.8	46	63.4	1	3	90	0.00	29.917 
15:50	87.2	87.2	87.9	44	62.6	0	3	90	0.00	29.917 
15:55	86.7	86.7	88.1	47	64.0	2	5	68	0.00	29.917 
16:00	86.5	86.5	88.6	50	65.6	1	3	68	0.00	29.912 
16:05	86.1	86.1	87.5	48	64.1	1	5	68	0.00	29.912 
16:10	85.7	85.7	86.9	48	63.7	2	4	68	0.00	29.912 
16:15	85.7	85.7	87.2	49	64.3	1	3	68	0.00	29.912 
16:20	86.1	86.1	87.2	47	63.5	1	4	68	0.00	29.912 
16:25	86.3	86.3	87.2	46	63.0	1	3	68	0.00	29.912 
16:30	86.5	86.5	87.8	47	63.8	1	3	135	0.00	29.907 
16:35	85.9	85.9	87.2	48	63.9	2	5	68	0.00	29.907 
16:40	85.9	85.9	87.7	50	65.1	1	3	68	0.00	29.907 
16:45	86.1	86.1	87.0	46	62.9	1	3	112	0.00	29.901 
16:50	86.3	86.3	87.0	45	62.4	1	3	112	0.00	29.901 
16:55	86.7	86.7	88.3	48	64.6	0	2	112	0.00	29.901 
17:00	87.0	87.0	89.1	49	65.5	1	3	112	0.00	29.896 
17:05	87.2	87.2	89.4	49	65.7	1	2	248	0.00	29.896 
17:10	87.0	87.0	88.5	47	64.3	1	3	68	0.00	29.896 
17:15	86.3	86.3	87.5	47	63.7	1	3	135	0.00	29.892 
17:20	86.1	86.1	87.5	48	64.1	1	2	135	0.00	29.892 
17:25	85.9	85.9	87.2	48	63.9	0	2	135	0.00	29.892 
17:30	85.7	85.7	86.4	46	62.5	1	3	135	0.00	29.886 
17:35	85.5	85.5	86.2	46	62.3	1	2	135	0.00	29.886 
17:40	85.5	85.5	86.6	48	63.5	0	2	135	0.00	29.886 
17:45	85.5	85.5	86.2	46	62.3	1	3	135	0.00	29.882 
17:50	85.7	85.7	86.4	46	62.5	1	4	135	0.00	29.882 
17:55	85.3	85.3	86.6	49	63.9	1	4	68	0.00	29.882 
18:00	85.1	85.1	86.4	49	63.8	1	2	90	0.00	29.882 
18:05	84.9	84.9	85.8	48	63.0	1	2	90	0.00	29.882 
18:10	84.9	84.9	86.3	50	64.2	1	3	90	0.00	29.882 
18:15	84.9	84.9	85.6	47	62.4	1	4	90	0.00	29.881 
18:20	84.7	84.7	85.8	49	63.4	0	3	90	0.00	29.881 
18:25	84.5	84.5	86.0	51	64.4	1	2	90	0.00	29.881 
18:30	84.3	84.3	86.0	52	64.7	1	3	90	0.00	29.872 
18:35	84.0	84.0	85.6	52	64.4	1	3	90	0.00	29.872 
18:40	83.6	83.6	85.0	52	64.1	0	2	90	0.00	29.872 
18:45	83.4	83.4	85.2	54	65.0	0	1	90	0.00	29.870 
18:50	83.2	83.2	84.9	54	64.8	0	2	90	0.00	29.870 
18:55	83.0	83.0	84.9	55	65.1	0	2	90	0.00	29.870 
19:00	83.0	83.0	85.3	57	66.2	0	2	90	0.00	29.868 
19:05	82.8	82.8	84.8	56	65.5	0	1	90	0.00	29.868 
19:10	82.6	82.6	84.7	57	65.8	1	3	90	0.00	29.868 
19:15	82.6	82.6	84.7	57	65.8	0	2	90	0.00	29.866 
19:20	82.6	82.6	84.5	56	65.3	0	2	90	0.00	29.866 
19:25	82.6	82.6	84.7	57	65.8	1	2	90	0.00	29.866 
19:30	82.4	82.4	84.6	58	66.1	1	3	90	0.00	29.865 
19:35	82.4	82.4	84.2	56	65.1	0	1	90	0.00	29.865 
19:40	82.2	82.2	84.2	57	65.4	0	3	90	0.00	29.865 
19:45	82.0	82.0	83.9	57	65.2	0	1	90	0.00	29.867 
19:50	81.8	81.8	83.8	58	65.6	0	1	90	0.00	29.867 
19:55	81.6	81.6	83.7	59	65.9	0	1	90	0.00	29.867 
20:00	81.4	81.4	83.6	60	66.2	0	1	90	0.00	29.869 
20:05	81.4	81.4	83.6	60	66.2	0	1	90	0.00	29.869 
20:10	81.2	81.2	83.5	61	66.4	0	2	90	0.00	29.869 
20:15	81.2	81.2	83.3	60	66.0	0	1	90	0.00	29.871 
20:20	81.1	81.1	83.2	60	65.9	0	1	90	0.00	29.871 
20:25	81.1	81.1	83.3	61	66.4	0	0	---	0.00	29.871 
20:30	80.9	80.9	83.1	61	66.2	0	0	---	0.00	29.877 
20:35	80.7	80.7	82.9	62	66.4	0	0	---	0.00	29.877 
20:40	80.7	80.7	82.9	62	66.4	0	2	90	0.00	29.877 
20:45	80.5	80.5	82.7	62	66.3	0	1	90	0.00	29.876 
20:50	80.3	80.3	82.5	63	66.5	0	1	90	0.00	29.876 
20:55	80.3	80.3	82.5	63	66.5	0	1	90	0.00	29.876 
21:00	80.1	80.1	82.3	63	66.3	0	0	---	0.00	29.878 
21:05	79.9	79.9	82.0	63	66.2	0	0	---	0.00	29.878 
21:10	79.8	79.8	82.0	64	66.5	0	1	90	0.00	29.878 
21:15	79.8	79.8	82.0	64	66.5	0	0	---	0.00	29.879 
21:20	79.6	79.6	81.8	65	66.8	0	1	90	0.00	29.879 
21:25	79.6	79.6	81.8	65	66.8	0	0	---	0.00	29.879 
21:30	79.4	79.4	81.6	65	66.6	0	0	---	0.00	29.881 
21:35	79.4	79.4	81.6	65	66.6	0	1	90	0.00	29.881 
21:40	79.4	79.4	81.6	66	67.0	0	1	90	0.00	29.881 
21:45	79.4	79.4	81.6	66	67.0	0	1	90	0.00	29.885 
21:50	79.2	79.2	81.4	66	66.8	0	2	90	0.00	29.885 
21:55	79.2	79.2	81.5	67	67.3	1	3	90	0.00	29.885 
22:00	79.2	79.2	81.5	67	67.3	1	2	90	0.00	29.892 
22:05	79.0	79.0	81.3	68	67.5	0	2	90	0.00	29.892 
22:10	78.8	78.8	81.0	68	67.3	0	1	90	0.00	29.892 
22:15	78.8	78.8	81.1	69	67.7	0	3	90	0.00	29.893 
22:20	78.6	78.6	80.8	69	67.6	1	3	90	0.00	29.893 
22:25	78.5	78.5	80.7	69	67.5	1	3	90	0.00	29.893 
22:30	78.3	78.3	80.4	70	67.7	2	4	90	0.00	29.892 
22:35	78.3	78.3	80.4	70	67.7	1	4	90	0.00	29.892 
22:40	78.1	78.1	80.2	71	67.9	1	3	68	0.00	29.892 
22:45	78.1	78.1	80.2	71	67.9	1	3	68	0.00	29.893 
22:50	77.7	77.7	79.7	72	67.9	1	2	68	0.00	29.893 
22:55	77.6	77.6	79.5	72	67.8	1	3	68	0.00	29.893 
23:00	77.4	77.4	79.3	73	68.0	1	3	68	0.00	29.898 
23:05	77.2	77.2	79.0	74	68.3	1	4	68	0.00	29.898 
23:10	77.0	77.0	78.7	74	68.1	2	7	90	0.00	29.898 
23:15	76.8	76.8	78.4	75	68.3	2	4	90	0.00	29.892 
23:20	76.7	76.7	78.2	76	68.5	2	7	90	0.00	29.892 
23:25	76.5	76.5	78.0	76	68.4	2	5	90	0.00	29.892 
23:30	76.5	76.5	77.9	77	68.7	1	3	90	0.00	29.894 
23:35	76.3	76.3	77.6	77	68.5	1	2	90	0.00	29.894 
23:40	76.1	76.1	77.4	77	68.3	1	4	90	0.00	29.894 
23:45	76.0	76.0	77.2	78	68.6	2	4	90	0.00	29.892 
23:50	75.8	75.8	76.9	78	68.4	0	3	68	0.00	29.892 
23:55	75.8	75.8	76.9	78	68.4	1	4	68	0.00	29.892 

CoCoRaHS
IN-AL-39
A2 Web Hosting
Creative Commons License
GoDaddy
search engine by freefind advanced

loaded 2018-11-17 23:05:15 • last modified 2010-11-18 10:43:29
Privacy PolicyDisclaimer
• wx.awcolley.com is powered by PmWiki v.2002016 •
• all content (unless otherwise noted) © 2018 A W Colley